Wind_Speed
16 15 15 15 16 16 16 17 17 17 19 18 18 17 17 17 17 18 17 17 17 17 17 17 16 16 17 17 17 17 17 17 17 17 17 18 18 18 19 19 19 19 19 19
16 16 16 16 16 17 17 17 17 18 19 18 18 18 17 17 17 17 17 17 18 18 18 17 17 18 18 18 18 18 19 19 19 19 19 20 20 20 21 21 21 20 20 21
16 16 17 17 17 17 17 17 18 19 20 19 19 18 18 17 17 18 18 18 18 19 19 18 18 19 19 19 19 19 19 20 21 20 20 21 22 22 22 21 21 21 21 21
17 17 18 17 17 17 18 18 18 19 20 19 19 19 18 18 18 18 18 18 18 19 19 19 20 20 20 20 20 21 21 21 22 22 22 22 22 22 22 22 22 22 22 22
17 17 18 17 17 18 18 18 18 18 19 19 19 20 18 18 19 19 19 19 19 19 20 20 20 21 21 21 21 21 21 22 22 22 23 22 22 22 22 23 22 22 22 22
17 17 17 17 17 17 17 18 18 18 19 20 19 21 20 19 20 20 20 20 20 20 20 20 20 21 22 22 21 22 22 22 22 22 23 23 23 22 22 22 22 21 21 21
16 17 16 17 17 17 17 17 17 17 18 20 20 22 21 20 20 20 21 20 20 20 20 20 20 21 22 22 22 22 22 22 22 23 23 24 23 22 22 21 21 20 21 20
16 16 16 17 17 17 17 17 17 18 18 19 20 22 21 20 20 21 21 21 21 21 21 21 21 21 21 21 22 22 22 22 23 23 24 24 23 22 22 21 21 20 20 21
17 17 17 17 17 17 18 18 18 19 20 20 20 22 20 20 20 21 21 22 22 21 21 21 21 21 21 21 21 20 21 22 23 23 24 24 23 23 23 22 22 21 20 21
17 18 18 18 18 18 18 18 19 19 20 20 21 21 20 21 21 22 22 22 22 22 21 21 21 21 20 20 20 20 21 22 23 23 23 23 23 23 23 23 23 22 21 22
17 18 18 19 19 18 19 19 19 20 21 21 21 21 21 21 22 22 21 22 21 21 21 20 19 19 19 19 20 20 21 22 23 23 22 22 22 23 22 22 22 21 22 23
17 18 18 18 19 19 19 19 19 21 22 22 23 21 22 22 22 21 21 20 20 20 20 19 18 18 18 19 20 20 21 22 22 23 22 22 22 22 22 22 22 22 23 24
18 18 18 17 18 19 19 19 20 21 22 22 22 21 22 21 21 22 21 20 19 19 19 18 17 18 19 20 21 21 22 22 22 22 22 22 23 23 23 23 23 23 23 23
20 19 19 18 17 18 19 19 20 20 20 21 21 20 21 21 21 20 20 19 19 19 18 18 18 18 20 21 21 21 21 21 21 21 21 22 23 23 23 23 23 24 24 24
21 21 21 19 19 20 20 20 20 20 20 20 20 20 20 20 20 20 19 19 19 18 18 18 19 19 20 21 20 20 21 21 21 22 22 23 23 23 23 23 24 25 25 24
23 23 22 21 21 21 22 22 21 21 21 21 21 21 20 20 20 20 19 19 19 18 18 19 19 20 20 20 20 21 22 22 22 22 22 23 23 23 24 24 25 25 25 25
23 23 23 22 22 23 24 22 22 22 22 21 21 21 21 20 19 19 19 19 19 19 19 20 21 21 21 20 21 21 22 22 23 23 23 23 23 24 24 25 25 25 25 25
23 23 23 23 23 24 23 22 23 23 22 22 22 22 21 20 19 19 20 20 20 20 21 22 21 21 21 21 21 22 22 22 23 24 24 24 24 24 25 26 26 25 25 25
23 22 22 22 23 24 23 22 23 23 23 22 22 22 21 20 20 21 21 22 22 22 23 23 22 22 22 22 22 23 23 24 24 25 25 24 25 25 26 26 26 26 25 25
23 23 23 22 22 23 23 23 23 23 23 22 21 21 21 21 21 22 23 23 24 23 23 23 23 23 23 23 23 23 23 23 24 24 24 25 26 26 26 26 26 25 24 24
23 23 24 24 24 24 24 23 22 22 22 22 22 21 22 22 23 24 24 24 24 24 24 24 24 24 23 22 22 22 23 23 24 25 26 26 26 26 26 26 25 25 24 23
24 24 24 24 24 24 24 23 22 22 23 23 23 23 23 23 23 24 24 24 24 24 24 24 23 23 22 22 22 23 23 24 25 26 26 26 27 26 26 26 25 24 24 23
25 24 24 25 25 25 24 24 24 23 23 23 24 24 24 24 23 24 24 24 24 24 24 23 23 23 23 23 23 24 25 25 25 26 27 27 27 26 26 26 26 25 24 23
26 25 25 26 26 26 25 25 25 24 24 24 24 24 25 24 24 24 24 24 24 24 24 24 24 24 24 24 25 25 26 25 26 26 27 27 27 27 26 26 25 24 23 23
27 26 26 27 27 27 26 26 26 25 25 24 25 25 25 25 24 24 25 25 25 24 24 24 24 25 25 25 25 25 26 26 26 27 27 26 26 27 26 25 24 23 23 22
28 27 27 27 27 27 27 27 27 26 25 25 24 24 24 24 24 25 25 25 25 25 25 25 25 25 25 26 26 26 26 27 27 28 27 27 27 27 26 25 25 24 24 22
Wind_Direction
242 246 250 255 259 261 262 265 269 270 273 275 279 282 283 284 280 283 285 286 288 293 295 296 295 299 298 297 295 294 294 296 297 297 298 299 295 291 288 287 285 281 278 276
243 247 250 256 261 263 264 267 269 270 272 274 275 279 282 285 284 285 286 287 288 291 293 294 294 294 297 298 296 293 291 293 295 295 296 297 294 290 288 286 282 279 278 275
245 248 251 254 259 264 263 266 267 270 274 276 276 276 281 286 285 286 286 286 288 289 291 294 295 295 295 295 293 293 293 292 292 295 293 294 294 290 287 287 283 280 280 277
247 248 251 253 256 262 263 266 267 269 273 277 279 279 280 282 284 288 289 290 289 289 291 292 292 292 291 291 292 291 292 292 294 295 296 297 296 293 289 286 284 282 282 281
249 248 249 251 254 260 263 265 267 269 271 274 278 282 283 286 290 292 291 292 292 291 292 292 291 289 289 289 290 291 292 293 294 295 297 297 297 295 291 287 283 282 281 279
247 245 247 252 256 259 264 267 269 272 274 275 278 283 284 290 292 293 292 290 290 292 294 294 292 290 288 289 290 291 294 294 294 294 295 297 298 296 291 288 285 283 280 278
249 248 249 253 256 259 264 269 276 277 276 277 283 285 288 290 291 292 291 291 292 292 293 294 295 294 293 293 293 292 292 292 293 293 294 297 298 296 294 291 289 286 281 279
246 247 251 252 255 262 265 267 269 274 278 282 286 287 291 292 292 293 291 290 291 291 293 295 297 296 295 294 294 291 291 293 293 294 295 297 296 294 293 292 291 288 285 281
246 248 251 253 254 260 264 267 270 275 280 283 285 288 290 292 294 294 293 292 292 291 292 294 296 297 297 296 295 292 292 293 294 296 296 295 295 295 296 297 293 289 286 284
249 252 252 253 255 259 262 267 270 275 279 282 284 289 292 295 297 296 295 293 292 292 294 294 295 297 298 298 297 296 295 294 294 295 296 296 292 294 295 294 294 291 289 288
252 255 256 256 257 261 264 267 272 276 277 278 281 287 292 294 296 297 295 293 293 294 294 294 295 297 297 298 297 297 296 294 293 294 296 297 295 294 295 296 295 295 294 290
253 256 258 261 260 260 262 268 273 277 279 281 283 287 289 291 294 296 296 296 294 294 295 293 291 294 296 297 298 297 297 297 296 295 295 295 298 297 298 297 297 298 297 294
257 258 259 265 266 265 266 269 272 276 278 280 282 286 288 289 292 298 298 298 296 295 293 292 291 293 294 297 299 298 298 297 297 295 295 296 297 296 298 301 301 300 298 295
256 257 258 260 263 268 272 274 274 276 278 279 281 284 286 291 295 298 299 297 297 295 291 288 289 292 294 295 298 298 297 298 299 299 300 300 298 297 300 301 302 302 301 298
258 260 260 260 260 264 268 271 274 277 280 280 282 285 289 291 294 298 299 298 297 295 291 288 287 290 292 294 296 296 298 299 300 301 303 304 303 303 304 303 304 304 301 298
261 263 262 262 262 264 267 269 272 276 278 279 282 285 289 289 293 295 297 298 296 294 292 290 290 292 292 293 293 294 295 297 300 302 303 306 306 305 305 305 304 303 300 298
262 264 263 264 264 265 266 270 273 275 276 277 281 285 287 288 291 293 295 296 294 293 294 293 293 294 293 293 293 295 296 297 300 302 305 307 309 308 305 304 303 302 300 299
261 262 264 266 266 266 269 270 273 274 274 277 279 282 285 288 290 293 293 293 293 292 294 295 293 294 294 294 295 297 299 300 302 302 305 308 309 309 308 306 304 303 301 299
259 260 263 267 269 269 269 271 272 273 274 276 279 281 282 285 288 290 291 292 291 293 296 295 292 294 294 294 296 298 299 300 302 304 306 307 308 308 308 308 306 304 302 300
258 259 262 265 268 269 269 270 272 274 276 276 278 280 281 285 287 290 292 291 290 292 296 297 293 293 293 295 296 297 298 300 302 304 305 305 306 308 308 308 307 306 303 300
258 260 262 264 267 268 270 273 273 274 275 276 277 278 280 284 285 288 290 291 290 292 295 297 295 294 296 297 296 296 299 301 303 304 304 305 306 306 308 309 308 306 304 303
258 260 262 262 264 266 269 272 271 272 274 276 277 278 280 283 285 288 290 291 292 293 294 295 296 297 298 297 297 298 301 302 303 304 305 306 307 308 308 309 309 307 306 304
255 258 260 261 263 266 269 270 272 272 273 275 277 278 281 283 285 287 289 290 292 293 294 296 296 296 296 296 297 298 300 301 302 304 306 307 308 308 308 309 309 308 306 303
254 255 259 261 264 266 268 268 270 271 273 274 276 278 281 283 283 285 289 290 292 292 293 294 295 294 294 295 296 297 299 300 302 305 306 306 307 307 307 308 309 309 307 304
254 255 257 260 263 264 265 267 269 271 273 274 276 278 280 281 283 285 288 290 290 291 293 294 295 296 296 296 297 299 300 301 303 305 306 306 306 307 307 306 307 308 307 304
255 255 257 259 262 265 266 267 269 271 273 276 276 276 277 279 281 284 286 288 290 291 292 293 293 294 295 295 296 298 298 300 302 305 305 305 306 307 307 305 305 306 306 304
Height
5869 5872 5872 5873 5874 5875 5875 5875 5875 5875 5874 5873 5872 5871 5871 5869 5868 5867 5865 5864 5863 5862 5860 5858 5856 5854 5852 5851 5849 5848 5846 5844 5842 5840 5838 5836 5834 5832 5830 5829 5828 5827 5826 5825
5866 5867 5869 5869 5869 5870 5870 5870 5871 5871 5869 5869 5868 5867 5867 5865 5864 5863 5861 5860 5859 5858 5856 5855 5853 5851 5849 5847 5845 5843 5842 5840 5838 5836 5834 5832 5829 5827 5825 5823 5822 5821 5820 5819
5862 5865 5864 5864 5865 5865 5866 5866 5867 5866 5865 5864 5864 5864 5863 5861 5860 5859 5858 5856 5855 5853 5851 5850 5848 5846 5844 5843 5841 5839 5837 5835 5833 5831 5829 5826 5823 5821 5819 5818 5816 5815 5814 5813
5857 5858 5859 5859 5861 5861 5862 5862 5862 5861 5860 5861 5860 5859 5860 5857 5856 5854 5853 5851 5850 5849 5847 5845 5844 5842 5840 5838 5836 5835 5833 5831 5828 5826 5823 5821 5818 5816 5814 5812 5810 5809 5807 5806
5853 5854 5854 5855 5857 5857 5858 5858 5857 5857 5856 5856 5856 5855 5856 5853 5851 5850 5848 5847 5845 5844 5842 5841 5839 5837 5835 5834 5832 5830 5828 5826 5823 5821 5818 5816 5814 5811 5809 5806 5805 5803 5801 5800
5848 5849 5850 5851 5852 5853 5853 5853 5853 5852 5852 5852 5852 5851 5850 5849 5847 5846 5844 5842 5841 5840 5838 5836 5834 5832 5831 5829 5827 5825 5823 5821 5818 5816 5814 5811 5808 5806 5803 5801 5798 5797 5795 5794
5844 5845 5845 5847 5848 5848 5849 5850 5850 5850 5849 5849 5848 5846 5846 5844 5842 5841 5839 5838 5836 5835 5833 5831 5829 5827 5825 5823 5821 5819 5818 5816 5813 5811 5808 5806 5803 5800 5798 5795 5793 5791 5789 5788
5841 5843 5842 5843 5844 5845 5845 5846 5847 5847 5847 5846 5843 5841 5841 5839 5837 5836 5834 5832 5831 5829 5828 5826 5824 5822 5820 5818 5816 5814 5812 5810 5808 5806 5803 5800 5797 5795 5792 5790 5788 5785 5784 5782
5838 5840 5839 5839 5840 5841 5841 5841 5842 5842 5840 5840 5839 5837 5836 5834 5832 5831 5829 5827 5825 5824 5822 5820 5818 5816 5814 5812 5810 5808 5807 5805 5802 5800 5798 5795 5792 5790 5787 5785 5782 5780 5778 5776
5833 5835 5835 5835 5836 5836 5837 5837 5837 5837 5836 5835 5835 5833 5832 5829 5828 5826 5824 5821 5820 5818 5817 5815 5813 5811 5809 5807 5805 5803 5801 5799 5797 5795 5792 5789 5787 5784 5782 5779 5776 5774 5772 5770
5829 5830 5831 5831 5831 5832 5833 5833 5832 5832 5832 5831 5830 5831 5827 5824 5822 5820 5818 5816 5815 5813 5812 5810 5809 5806 5805 5802 5800 5799 5797 5794 5792 5789 5786 5784 5782 5779 5776 5773 5771 5768 5766 5764
5825 5826 5826 5827 5827 5827 5828 5828 5828 5828 5826 5825 5824 5827 5821 5819 5817 5815 5813 5811 5810 5808 5807 5805 5804 5802 5800 5798 5796 5794 5791 5789 5786 5784 5781 5779 5776 5773 5770 5768 5765 5763 5760 5758
5820 5821 5822 5823 5824 5823 5823 5823 5823 5822 5821 5819 5819 5821 5815 5813 5811 5809 5808 5806 5805 5804 5802 5800 5799 5797 5795 5793 5791 5789 5786 5784 5781 5779 5776 5774 5771 5768 5765 5762 5759 5756 5754 5751
5815 5816 5818 5820 5820 5819 5818 5818 5817 5817 5816 5815 5814 5813 5811 5809 5806 5805 5803 5802 5800 5799 5797 5796 5794 5793 5791 5789 5786 5784 5781 5779 5776 5774 5771 5768 5765 5763 5759 5756 5754 5751 5748 5745
5810 5811 5812 5812 5813 5813 5813 5812 5812 5811 5810 5810 5809 5807 5806 5804 5802 5800 5799 5797 5796 5794 5793 5791 5790 5788 5786 5784 5781 5779 5777 5774 5771 5769 5766 5763 5760 5757 5754 5750 5747 5744 5741 5738
5804 5805 5805 5806 5807 5806 5806 5806 5806 5806 5805 5804 5803 5802 5801 5799 5797 5796 5794 5792 5791 5789 5788 5786 5784 5782 5780 5778 5776 5774 5772 5769 5766 5763 5760 5757 5754 5750 5747 5744 5741 5738 5735 5732
5797 5798 5799 5799 5800 5799 5800 5801 5800 5800 5799 5799 5798 5797 5795 5794 5792 5791 5789 5788 5786 5784 5783 5781 5779 5777 5775 5773 5771 5768 5766 5763 5761 5758 5754 5751 5748 5744 5741 5738 5735 5731 5728 5725
5791 5792 5792 5792 5793 5793 5796 5794 5794 5793 5793 5793 5792 5790 5790 5788 5787 5786 5784 5782 5781 5779 5777 5775 5773 5771 5769 5767 5765 5762 5760 5757 5755 5752 5749 5745 5742 5739 5735 5731 5728 5724 5721 5718
5785 5785 5785 5786 5786 5786 5788 5787 5786 5786 5786 5786 5785 5784 5783 5782 5781 5780 5778 5777 5775 5773 5772 5769 5767 5765 5763 5761 5759 5757 5754 5751 5749 5746 5742 5739 5736 5733 5729 5725 5721 5718 5715 5712
5778 5779 5780 5779 5779 5780 5782 5780 5779 5780 5779 5779 5778 5778 5777 5777 5776 5775 5773 5771 5769 5767 5765 5763 5761 5759 5757 5755 5753 5751 5748 5745 5742 5740 5737 5733 5730 5726 5723 5719 5715 5712 5708 5705
5772 5772 5772 5772 5772 5773 5773 5773 5773 5774 5774 5772 5771 5771 5771 5770 5770 5769 5766 5764 5763 5761 5759 5757 5754 5753 5751 5748 5746 5744 5742 5739 5736 5733 5730 5727 5724 5720 5716 5713 5709 5705 5702 5699
5765 5765 5765 5766 5766 5768 5766 5766 5767 5767 5765 5765 5765 5765 5764 5764 5762 5761 5760 5758 5756 5754 5752 5750 5748 5746 5744 5742 5740 5738 5736 5733 5730 5727 5724 5721 5717 5714 5710 5706 5702 5699 5696 5692
5757 5758 5758 5759 5761 5759 5759 5758 5759 5758 5758 5758 5758 5758 5757 5757 5755 5754 5753 5751 5750 5748 5746 5743 5742 5740 5738 5736 5734 5732 5729 5726 5724 5721 5718 5714 5711 5707 5703 5700 5696 5692 5689 5686
5749 5750 5750 5751 5751 5751 5751 5751 5751 5751 5751 5751 5751 5750 5750 5749 5748 5747 5746 5744 5743 5741 5739 5737 5735 5734 5732 5730 5727 5725 5722 5720 5717 5714 5711 5708 5704 5700 5697 5693 5690 5686 5683 5680
5740 5741 5742 5742 5743 5743 5743 5743 5743 5743 5743 5743 5743 5743 5742 5741 5741 5740 5738 5737 5735 5734 5732 5730 5729 5727 5725 5723 5720 5718 5715 5713 5710 5707 5704 5701 5697 5694 5690 5687 5683 5680 5676 5673
5731 5733 5733 5734 5735 5735 5735 5735 5735 5735 5736 5736 5735 5735 5734 5734 5733 5732 5731 5730 5728 5726 5725 5723 5722 5720 5718 5716 5714 5711 5709 5706 5703 5700 5697 5694 5690 5686 5683 5680 5676 5673 5670 5667